Regional Weather Roundup
Issued by NWS

Home | Current Version | Previous Version | Graphics & Text | Print | Product List | Glossary On
Versions: 1 2 3 4 5 6 7 8 9 10 11 12 13 14 15 16 17 18 19 20 21 22 23 24 25 26 27 28 29 30 31 32 33 34 35 36 37 38 39 40 41 42 43 44 45 46 47 48 49 50
000
ASUS43 KMPX 041501
RWRMN
WEATHER ROUNDUP FOR MINNESOTA
NATIONAL WEATHER SERVICE TWIN CITIES/CHANHASSEN MN
1000 AM CDT WED MAY 04 2016


NOTE: "FAIR" INDICATES FEW OR NO CLOUDS BELOW 12,000 FEET WITH NO
SIGNIFICANT WEATHER AND/OR OBSTRUCTIONS TO VISIBILITY. N/A MEANS
CURRENT SKY AND/OR WEATHER CONDITIONS ARE NOT AVAILABLE.

MNZ060>063-068>070-041600-
   Twin Cities Metro

CITY           SKY/WX    TMP DP  RH WIND       PRES   REMARKS
TWIN CITIES    MOSUNNY   55  33  43 NW14      29.99S
ST PAUL        SUNNY     55  35  47 N13       29.99F
CRYSTAL        SUNNY     57  33  40 N18       29.98F
BLAINE         MOSUNNY   57  36  44 N13G18    29.98F
EDEN PRAIRIE   SUNNY     56  32  40 NW10      29.98F
SOUTH ST PAUL  SUNNY     55  33  43 N10       29.98S
LAKE ELMO      FAIR      54  36  50 N14       29.99S
$$
MNZ001>005-007-008-013>017-022>024-027-028-041600-
   Northwest Minnesota

CITY           SKY/WX    TMP DP  RH WIND       PRES   REMARKS
BEMIDJI        SUNNY     51  32  48 NW12      30.06S
HALLOCK        SUNNY     52  36  54 NW5       30.11S
ROSEAU         SUNNY     52  36  54 N6        30.09S
WARROAD        SUNNY     48  36  61 E5        30.09S
THIEF RVR FALL SUNNY     52  32  46 N9        30.10F
CROOKSTON      SUNNY     54  36  50 N5        30.11F
FOSSTON        SUNNY     54  32  43 N9        30.09S
DETROIT LAKES  SUNNY     54  37  54 NW9       30.08S
MOORHEAD       SUNNY     54  36  50 N7        30.10F
PARK RAPIDS    SUNNY     53  33  46 N16       30.05S
MAHNOMEN       FAIR      52  35  52 N12       30.08S
$$
MNZ006-009>011-018-025>026-041600-
   North Central Minnesota

CITY           SKY/WX    TMP DP  RH WIND       PRES   REMARKS
BAUDETTE       SUNNY     50  26  39 N12       30.07S
FLAG ISLAND    SUNNY     45  25  45 N8        30.08S
INTL FALLS     SUNNY     47  26  44 NW8       30.04S
WASKISH        SUNNY     52  30  43 NW9       30.06S
BIG FORK       SUNNY     50  25  37 NW6       30.03S
LONGVILLE      SUNNY     52  32  46 N7G16     30.03F
GRAND RAPIDS   SUNNY     48  27  43 N12G18    30.03R
CRANE LAKE     SUNNY     45  27  49 N9        30.03S
ORR            SUNNY     48  23  37 NW10      29.99S
COOK           SUNNY     46  25  42 N7        30.01S
WALKER         FAIR      49  32  51 N10G16    30.05S
$$
MNZ012-019>021-037-041600-
   Northeast Minnesota

CITY           SKY/WX    TMP DP  RH WIND       PRES   REMARKS
DULUTH         SUNNY     51  26  37 N18G26    29.95F
ELY            SUNNY     45  25  45 NW9       29.98R
HIBBING        SUNNY     48  27  44 N13G24    29.99S
EVELETH        SUNNY     48  23  37 N9        30.00R
DULUTH HARBOR  SUNNY     52  34  50 N14       29.98S
TWO HARBORS    SUNNY     55  28  35 N8        29.94S
SILVER BAY     SUNNY     52  25  35 N7G17     29.94R
GRAND MARAIS     N/A     47  28  47 NE12G22   29.96R
G MARAIS ARPRT PTSUNNY   41  25  52 NW18      29.94R
$$
MNZ029>031-032-039>041-046>048-054>057-064-041600-
   West Central Minnesota

CITY           SKY/WX    TMP DP  RH WIND       PRES   REMARKS
FERGUS FALLS   SUNNY     55  37  50 N9G18     30.06S
WHEATON        SUNNY     57  39  51 NW8       30.10F
MORRIS         SUNNY     57  37  47 NW10      30.06S
ALEXANDRIA     SUNNY     57  33  40 NW14      30.06S
ELBOW LAKE     FAIR      55  37  51 W9        30.07S
WADENA         SUNNY     54  36  50 N9        30.05S
GLENWOOD       SUNNY     57  34  41 NW13      30.05F
APPLETON       SUNNY     57  36  44 NW9       30.07R
BENSON         SUNNY     59  30  33 N12       30.06S
ORTONVILLE     SUNNY     54  37  54 NW9       30.08S
MADISON        SUNNY     55  37  50 NW9       30.08S
WILLMAR        FAIR      57  34  41 NW12G17   30.06S
$$
MNZ033>034-036-042>043-049>051-058-059-041600-
   Central Minnesota

CITY           SKY/WX    TMP DP  RH WIND       PRES   REMARKS
ST CLOUD       SUNNY     55  33  43 N12G21    30.01S
SAUK CENTRE    FAIR      55  34  45 NW15      30.04F
PAYNESVILLE    SUNNY     56  31  38 NW13G21   30.04S
AITKIN         SUNNY     55  30  38 N14G20    30.00S
PINE RIVER     SUNNY     52  36  54 N13G18    30.06S
BRAINERD       SUNNY     52  34  50 N14       30.02S
STAPLES        SUNNY     54  34  47 NW14      30.04S
LONG PRAIRIE   FAIR      54  34  47 NW12      30.05S
LITTLE FALLS   SUNNY     54  32  43 NW8G17    30.03S
LITCHFIELD     SUNNY     57  36  44 NW9       30.03S
BUFFALO        SUNNY     55  32  41 NW9       30.02S
MAPLE LAKE     SUNNY     56  37  49 N12       30.03S
HUTCHINSON     SUNNY     56  36  46 NW13G21   30.04S
$$
MNZ037-044-045-052-053-041600-
   East Central Minnesota

CITY           SKY/WX    TMP DP  RH WIND       PRES   REMARKS
PRINCETON      SUNNY     57  36  44 NW14G21   30.00F
MORA           SUNNY     54  32  43 N10G20    30.01S
CAMBRIDGE      MOSUNNY   55  37  50 NW10G17   29.97S
RUSH CITY      MOSUNNY   54  35  48 N12G20    29.99S
MOOSE LAKE     SUNNY     52  34  50 N14G21    29.97S
HINCKLEY       CLOUDY    54  36  50 NW17      29.98S
CLOQUET        SUNNY     52  27  37 NW21      29.97S
MCGREGOR       SUNNY     50  34  53 NW14G24   30.01S
$$
MNZ071>073-080-081-089-090-097-098-041600-
   Southwest Minnesota

CITY           SKY/WX    TMP DP  RH WIND       PRES   REMARKS
MONTEVIDEO     SUNNY     59  37  44 N8        30.08S
GRANITE FALLS  SUNNY     58  35  43 NW8       30.07F
CANBY          SUNNY     58  41  52 W8        30.08F
MARSHALL       SUNNY     54  36  50 NW8       30.07S
REDWOOD FALLS  SUNNY     57  31  37 N8        30.04S
OLIVIA         SUNNY     55  32  41 N10G16    30.04S
PIPESTONE      SUNNY     55  32  41 N7        30.07S
WINDOM         SUNNY     54  32  43 N7        30.05R
WORTHINGTON    SUNNY     52  35  52 N9        30.07R
JACKSON        SUNNY     54  34  47 N10G16    30.04S
TRACY          SUNNY     55  35  46 N9        30.06F
SLAYTON        SUNNY     52  33  48 N10       30.07R
$$
MNZ065>067-074>077-082>085-091>093-041600-
   South Central Minnesota

CITY           SKY/WX    TMP DP  RH WIND       PRES   REMARKS
MANKATO        SUNNY     55  32  41 N13G21    30.01F
NEW ULM        SUNNY     54  32  43 N9G16     30.03S
ST JAMES       SUNNY     50  28  43 N12       30.04S
FAIRMONT       SUNNY     54  32  43 N13       30.02S
GLENCOE        SUNNY     56  37  49 NW9       30.01F
FARIBAULT      SUNNY     55  34  44 N10G16    30.00R
OWATONNA       SUNNY     55  32  41 N15G21    29.99S
WASECA         SUNNY     55  34  44 N17       30.01S
ALBERT LEA     SUNNY     54  32  43 N14G20    29.98S
$$
MNZ078>079-086>088-094>096-041600-
   Southeast Minnesota

CITY           SKY/WX    TMP DP  RH WIND       PRES   REMARKS
ROCHESTER      SUNNY     53  36  52 N15G26    29.96S
RED WING       SUNNY     55  32  41 N8        29.96S
STANTON        SUNNY     56  33  40 N10G20    29.97S
DODGE CENTER   SUNNY     54  34  47 N15G23    29.97R
WINONA         MOSUNNY   54  34  47 N10G17    29.93S
AUSTIN         SUNNY     54  34  47 N14G22    29.97R
PRESTON        SUNNY     51  34  53 N18G25    29.94S
$$
ABBREVIATIONS USED IN REMARKS
   TC - TEMPERATURES IN CELSIUS
  WCI - WIND CHILL INDEX
   HX - HEAT INDEX
  VSB - VISIBILITY
$$




USA.gov is the U.S. government's official web portal to all federal, state and local government web resources and services.